Regional Weather Roundup
Issued by NWS

Home | Current Version | Previous Version | Graphics & Text | Print | Product List | Glossary On
Versions: 1 2 3 4 5 6 7 8 9 10 11 12 13 14 15 16 17 18 19 20 21 22 23 24 25 26 27 28 29 30 31 32 33 34 35 36 37 38 39 40 41 42 43 44 45 46 47 48 49 50
000
ASUS43 KMKX 261120
RWRWI

WISCONSIN REGIONAL WEATHER ROUNDUP
NATIONAL WEATHER SERVICE MILWAUKEE/SULLIVAN WI
600 AM CDT THU APR 26 2018

NOTE: "FAIR" INDICATES FEW OR NO CLOUDS BELOW 12,000 FEET WITH NO
SIGNIFICANT WEATHER AND/OR OBSTRUCTIONS TO VISIBILITY.

WIZ001-002-006>008-014>016-023>028-261200-
NORTHWEST WISCONSIN

CITY           SKY/WX    TMP DP  RH WIND       PRES   REMARKS
SUPERIOR ARPT  FAIR      37  27  65 S5        29.81F WCI  34
ASHLAND        FAIR      38  27  64 SW8       29.83F WCI  32
HAYWARD        FAIR      29  24  82 CALM      29.85F
SIREN          FAIR      31  25  80 CALM      29.85F
CUMBERLAND     FAIR      32  27  80 CALM      29.87S
RICE LAKE      FAIR      30  29  96 CALM      29.89S
CHETEK         FAIR      29  26  91 CALM      29.88F
LADYSMITH      FAIR      32  28  86 CALM      29.89S
EAU CLAIRE     FAIR      30  26  85 CALM      29.88F
MENOMONIE      FAIR      33  31  90 CALM      29.90R
NEW RICHMOND   FAIR      34  30  83 CALM      29.88S
OSCEOLA        FAIR      34  29  81 S3        29.90F
$$

WIZ003>005-009-010-017-018-261200-
NORTH CENTRAL WISCONSIN

CITY           SKY/WX    TMP DP  RH WIND       PRES   REMARKS
MANITOWISH WTR FAIR      25  25 100 CALM      29.84F
ARBOR VITAE    FAIR      29  24  81 CALM      29.85F
WOODRUFF       FAIR      29  24  81 CALM      29.85F
RHINELANDER    FAIR      31  23  72 CALM      29.86F
EAGLE RIVER    FAIR      26  23  87 CALM      29.86S
LAND O LAKES   FAIR      24  23  93 CALM      29.87S
PHILLIPS       FAIR      28  26  92 CALM      29.86S
TOMAHAWK       FAIR      26  24  90 CALM      29.88F
MEDFORD        FAIR      34  26  74 S3        29.88S
MERRILL        FAIR      26  24  90 CALM      29.89F
$$

WIZ029-030-035-036-043>047-261200-
CENTRAL WISCONSIN

CITY           SKY/WX    TMP DP  RH WIND       PRES   REMARKS
WAUSAU         FAIR      30  26  85 E3        29.88S
MOSINEE        PTCLDY    34  28  80 CALM      29.90F
MARSHFIELD     FAIR      39  28  64 W3        29.88F
STEVENS POINT  FAIR      28  28  97 CALM      29.91S
WAUPACA        FAIR      35  31  85 CALM      29.92S
WAUTOMA        FAIR      28  26  92 CALM      29.93F
WISC RAPIDS    FAIR      31  26  82 CALM      29.91F
CAMP DOUGLAS   FAIR      33  28  80 CALM      29.91S
$$

WIZ011>013-019>022-031-037>040-048>050-261200-
NORTHEAST WISCONSIN

CITY           SKY/WX    TMP DP  RH WIND       PRES   REMARKS
ANTIGO         FAIR      30  28  94 CALM      29.89F
SHAWANO        FAIR      32  31  94 CALM      29.91S
OCONTO         FAIR      28  27  95 CALM      29.90F
STURGEON BAY   FAIR      36  28  73 S3        29.91F
GREEN BAY      FAIR      35  31  85 S3        29.91F
MANITOWOC      FAIR      32  28  85 CALM      29.94S
APPLETON       CLEAR     36  28  75 VRB3      29.90F
CLINTONVILLE   FAIR      33  29  86 CALM      29.91S
OSHKOSH        FAIR      37  31  78 S6        29.92F WCI  32
$$

WIZ032>034-041-042-053>061-261200-
SOUTHWEST WISCONSIN

CITY           SKY/WX    TMP DP  RH WIND       PRES   REMARKS
LA CROSSE      FAIR      40  34  79 SE6       29.92S
SPARTA         FAIR      28  26  90 CALM      29.93R
VIROQUA        FAIR      39  30  70 CALM      29.92R
BOSCOBEL       FAIR      32  29  88 CALM      29.94F
PRAIRIE DU CHI FAIR      36  29  76 E5        29.93F WCI  32
PLATTEVILLE    FAIR      37  33  84 SE5       29.95R WCI  34
$$

WIZ056-057-062-063-064-067-068-261200-
SOUTH CENTRAL WISCONSIN

CITY           SKY/WX    TMP DP  RH WIND       PRES   REMARKS
REEDSBURG      FAIR      38  32  78 CALM      29.93R
BARABOO/DELLS  FAIR      37  31  78 S3        29.92S
LONE ROCK      FAIR      32  28  85 CALM      29.94F
MINERAL POINT  FAIR      36  34  93 SE3       29.94S
MADISON        MOCLDY    39  30  70 CALM      29.94F
MIDDLETON      FAIR      39  31  71 S3        29.94S
WATERTOWN      FAIR      30  30 100 CALM      29.94S
MONROE         FAIR      36  30  80 SW12      29.94S WCI  27
JANESVILLE     CLEAR     34  28  80 CALM      29.95F
$$

WIZ051-052-058>065-066-070>072-261200-
SOUTHEAST WISCONSIN

CITY           SKY/WX    TMP DP  RH WIND       PRES   REMARKS
MILWAUKEE      FAIR      37  29  72 CALM      29.96R
WAUKESHA       CLEAR     30  25  80 CALM      29.96S
MILWAUKEE/TIMM FAIR      32  27  80 SW3       29.96S
RACINE         FAIR      34  29  82 W7        29.97S WCI  28
BURLINGTON     FAIR      27  26  94 CALM      29.96R
KENOSHA        FAIR      32  27  81 W3        29.95F
FOND DU LAC    FAIR      35  30  82 S5        29.93F WCI  31
SHEBOYGAN      FAIR      32  29  88 S3        29.93F
WEST BEND      FAIR      32  32 100 CALM      29.94S
JUNEAU         FAIR      34  29  85 CALM      29.95S
$$

LSZ147-162-261200-
LAKE SUPERIOR

STATION/POSITION TIME  TEMP    WIND        PRES    WAVE
                       AIR SEA DIR/SP/G            HT/PER
                 (UTC) (F)     (DEG/KT/KT) (MB)    (FT/S)
DEVILS ISLAND    1100   43     220/ 10/ 11 1009.7F
SAXON HARBOR     1040   34     190/  4/  7 1009.5F
$$

LMZ867-665-643>646-261200-
LAKE MICHIGAN

STATION/POSITION TIME  TEMP    WIND        PRES    WAVE
                       AIR SEA DIR/SP/G            HT/PER
                 (UTC) (F)     (DEG/KT/KT) (MB)    (FT/S)
NORTHPORT PIER   1101   32                 1012.5
KEWAUNEE LAKESHO 1054   38     200/  5/  6 1012.6F
SHEBOYGAN LAKESH 1100   38     200/  7/  7 1014.2F
PORT WASHINGTON  1030   36     260/  2/  3 1015.2F
MILWAUKEE LAKESH 1100   39      CALM  /  1   N/A
KENOSHA   LAKESH 1100   37                 1014.6
$$

TC  - TEMPERATURE IN CELSIUS
VSB - VISIBILITY IN STATUTE MILES
WCI - WIND CHILL INDEX
HX  - HEAT INDEX





USA.gov is the U.S. government's official web portal to all federal, state and local government web resources and services.